リニア彗星

218P/LINEAR (2015)

English version
Home page
Updated on June 11, 2016

---------------------------------------------------------------------

・ プロフィール

・ 写真集

・ 軌道要素

Epoch 2015 Apr. 8.0 TT = JDT 2457120.5
T 2015 Apr. 23.17117 TT                                 MPCW
q   1.1714868            (2000.0)            P               Q
n   0.18094977     Peri.   59.66730     -0.56358831     +0.82604924
a   3.0957367      Node   176.02368     -0.77327734     -0.52617163
e   0.6215806      Incl.    2.72484     -0.29053465     -0.20195559
P   5.45
From 500 observations 2003 Apr. 29-2015 Aug. 21, mean residual 0".7.

・ 星図

・ 光度変化

        m1 = 14.5 + 5 logΔ + 14.0 log r(t - 15)

---------------------------------------------------------------------

軌道要素はM.P.E.C. 2015-Q71に掲載されたものです。
星図はステラナビゲータ Ver.8 (アストロアーツ) で作成したものです。
光度グラフはComet for Windowsで作成したものです。

---------------------------------------------------------------------

Copyright(C) Seiichi Yoshida (comet@aerith.net). All rights reserved.